Terminal Aerodrome Forecast
Issued by NWS

Current Version | Previous Version | Graphics & Text | Print | Product List | Glossary On
Versions: 1 2 3 4 5 6 7 8 9 10 11 12 13 14 15
000
FTUS41 KPBZ 200500
TAFMGW
TAF
KMGW 200523Z 2006/2106 00000KT P6SM BKN250
     FM201500 11005KT P6SM SKC=

USA.gov is the U.S. government's official web portal to all federal, state and local government web resources and services.